Location: Zentrum-West, Leipzig, Deutschland
(51.3390°N, 12.3701°E)
Time: 05:13:21
(UTC+01:00)

ISS - Visible Passes

Search period start: 17 November 2018 00:00
Search period end: 27 November 2018 00:00
Orbit: 402 x 408 km, 51.6° (Epoch: 17 November)

Date Brightness Start Highest point End Pass type
(mag) Time Alt. Az. Time Alt. Az. Time Alt. Az.
24 Nov -1.0 18:33:54 10° S 18:34:06 11° S 18:34:06 11° S visible
25 Nov -1.3 17:43:32 10° SSE 17:44:09 10° SE 17:44:16 10° SE visible
25 Nov -0.6 19:16:52 10° SW 19:16:57 10° SW 19:16:57 10° SW visible
26 Nov -2.1 18:25:03 10° SSW 18:27:02 25° S 18:27:02 25° S visible
